OPS 4682 DEB, 55116

Orbit data source: Space-Track

OPS 4682 DEB, 55116 is space debris in LEO originally from a launch on Sat, 03 Apr 1965 UTC launched from the Air Force Western Test Range (AFWTR). Debris objects in space refer to the collection of defunct objects orbiting the Earth. Examples of debris include non-operational satellites, rocket bodies, and fragments generated from explosions, collisions, or faulty payload assembly.

Loading next visibility...
Identifier
55116, 1965-027HF
Orbit
LEO
Country
Flag of USUS
Related business
Manufacturer
Unknown
Mission
Spacecraft
Bus & Motor
Unknown
Mass
Unknown
Launch date (UTC)
1965-04-03 (61 years ago)
Launch vehicle
Unknown
Launch site
Air Force Western Test Range (AFWTR)
Object type
Payload
Rocket body
Debris
Shape & HBR
Unknown shape, 1.1 m
Radar Cross Section
Medium (>0.1 m² and <1 m²)

Expand to show TLE details & history
Last TLE update: 7 hours ago

TLE from 7 hours ago
0 OPS 4682 DEB
1 55116U 65027HF  26263.58181946  .00000422  00000-0  13919-2 0  9992
2 55116  90.2484   9.3391 0033235  95.3717 265.1198 12.99015321526468
Epoch: 2026-09-20T13:57Z
TLE epoch observation values (Epoch: 2026-09-20T13:57:49.201Z)
Latitude
0.00002°
Longitude
160.41016°
Altitude
1,271.075 km
Speed
7.219 km/s
True Right ascension
00h 37m 21s
True Declination
0° 00' 00"
Sunlit
Object was in full shadow at epoch
Visualization orbit readout
Latitude
Unknown
Longitude
Unknown
Altitude
Unknown
Speed
Unknown
Apparent Right ascension
Unknown
Apparent Declination
Unknown
Sunlit
N/A
Visualization observer readout
Local Sidereal Time
13:55:19
Azimuth
Unknown
Elevation
Unknown
Doppler factor
Unknown
Orbital elements
Apogee altitude
1,288.471 km
Perigee altitude
1,237.68 km
Semi-major axis
7,641.213 km
Eccentricity
0.00332
Inclination
90.2484°
RAAN
9.3391°
Arg. of periapsis
95.3717°
True anomaly
264.74047°
Mean anomaly
265.1198°
Eccentric anomaly
264.93012°
Mean motion
3.24937 °/min
Orbital period
110.79 mins
BSTAR
0.0013919
Loading maneuver chart data...
Computing Atmospheric mass density...
Loading historical data...
Loading historical data...
Loading historical data...
Loading historical data...
Loading historical data...
Loading historical data...
Loading historical data...

Documentation

Showing up to 5 results
|